Location: Reeth
(54.3881°N, 1.9432°W)
Time: 23:50:12
(UTC+00:00)

Envisat - Visible Passes

Search period start: 14 November 2018 00:00
Search period end: 24 November 2018 00:00
Orbit: 764 x 766 km, 98.2° (Epoch: 14 November)

Date Brightness Start Highest point End Pass type
(mag) Time Alt. Az. Time Alt. Az. Time Alt. Az.
14 Nov 5.9 06:31:50 10° NE 06:34:47 15° E 06:37:42 10° ESE visible
14 Nov 3.4 17:52:27 10° SE 17:57:08 39° ENE 18:01:51 10° N visible
14 Nov 4.2 19:31:24 10° SSW 19:36:11 41° W 19:41:00 10° NNW visible
15 Nov 4.1 17:16:47 10° ESE 17:20:44 23° NE 17:24:41 10° N visible
15 Nov 3.1 18:54:12 10° S 18:59:17 77° WSW 19:04:24 10° NNW visible
15 Nov 5.8 20:36:32 10° WSW 20:39:12 14° W 20:41:53 10° NW visible
16 Nov 5.6 06:56:36 10° NE 07:00:41 24° E 07:04:44 10° SE visible
16 Nov 4.6 16:41:53 10° ENE 16:44:29 14° NE 16:47:05 10° NNE visible
16 Nov 3.0 18:17:35 10° SSE 18:22:34 59° ENE 18:27:34 10° N visible
16 Nov 4.9 19:57:42 10° SSW 20:01:58 26° W 20:06:14 10° NW visible
17 Nov 6.1 06:21:16 10° ENE 06:23:24 12° E 06:25:32 10° ESE visible
17 Nov 3.6 17:41:31 10° ESE 17:46:02 33° ENE 17:50:33 10° N visible
17 Nov 3.8 19:20:01 10° S 19:24:55 49° W 19:29:53 10° NNW visible
18 Nov 4.3 17:06:03 10° E 17:09:39 20° NE 17:13:17 10° N visible
18 Nov 2.9 18:42:59 10° SSE 18:48:05 90° ENE 18:53:13 10° NNW visible
18 Nov 5.5 20:24:33 10° SW 20:27:50 17° W 20:31:09 10° NW visible
19 Nov 5.8 06:45:40 10° NE 06:49:22 20° E 06:53:01 10° SE visible
19 Nov 3.1 18:06:32 10° SE 18:11:25 49° ENE 18:16:20 10° N visible
19 Nov 4.6 19:46:09 10° SSW 19:50:40 31° W 19:55:12 10° NNW visible
20 Nov 6.5 06:11:48 10° ENE 06:12:01 10° E 06:12:14 10° E visible
20 Nov 3.8 17:30:38 10° ESE 17:34:56 28° ENE 17:39:15 10° N visible
20 Nov 3.5 19:08:41 10° S 19:13:41 59° W 19:18:44 10° NNW visible
20 Nov 6.0 20:52:46 10° W 20:53:50 11° W 20:54:54 10° WNW visible
21 Nov 4.4 16:55:22 10° E 16:58:37 17° NE 17:01:52 10° N visible
21 Nov 2.8 18:31:49 10° SSE 18:36:53 76° ENE 18:42:00 10° NNW visible
21 Nov 5.3 20:12:45 10° SW 20:16:30 21° W 20:20:17 10° NW visible
22 Nov 5.9 06:34:50 10° NE 06:38:01 16° E 06:41:11 10° SE visible
22 Nov 3.3 17:55:32 10° SE 18:00:16 42° ENE 18:05:03 10° N visible
22 Nov 4.3 19:34:50 11° SSW 19:39:23 38° W 19:44:08 10° NNW visible
23 Nov 4.0 17:19:48 10° ESE 17:23:50 25° ENE 17:27:55 10° N visible
23 Nov 3.2 18:57:47 12° S 19:02:27 71° WSW 19:07:34 10° NNW visible
23 Nov 5.8 20:40:06 10° WSW 20:42:26 13° W 20:44:48 10° NW visible
